This demonstration page uses our WeatherBlox Daily Observations layout. Learn more.

Left ArrowRight Arrow

Hourly Observations for May 16, 2018

Temp ( °F °C ) Dew Point ( °F °C ) Humidity (%) Winds ( mph kmh ) Pressure ( in mb ) Visibility ( mi km ) Precip ( " mm )
12:51 am 00:51 Clear 66 18.9 16 -8.9 14 14 WNW 5 7 29.81 1009 10 16 0.00 0.00
1:51 am 01:51 Clear 63 17.2 16 -8.9 16 16 S 3 6 29.81 1010 10 16 0.00 0.00
2:51 am 02:51 Clear 63 17.2 17 -8.3 17 17 SSE 7 11 29.81 1010 10 16 0.00 0.00
3:51 am 03:51 Clear 61 16.1 17 -8.3 18 18 SE 5 7 29.82 1010 10 16 0.00 0.00
4:51 am 04:51 Clear 56 13.3 16 -8.9 21 21 Calm 29.84 1010 10 16 0.00 0.00
5:51 am 05:51 Sunny 56 13.3 15 -9.4 20 20 E 5 7 29.86 1011 10 16 0.00 0.00
6:51 am 06:51 Sunny 65 18.3 17 -8.3 16 16 SSE 3 6 29.87 1012 10 16 0.00 0.00
7:51 am 07:51 Sunny 70 21.1 18 -7.8 14 14 VRB 6 9 29.88 1012 10 16 0.00 0.00
8:51 am 08:51 Sunny 76 24.4 17 -8.3 11 11 Calm 29.87 1012 10 16 0.00 0.00
9:51 am 09:51 Sunny 82 27.8 17 -8.3 9 9 SSW 3 6 29.86 1011 10 16 0.00 0.00
10:51 am 10:51 Sunny 87 30.6 14 -10 6 6 NNE 3 6 29.84 1011 10 16 0.00 0.00
11:51 am 11:51 Sunny 89 31.7 8 -13.3 5 5 VRB 7 11 29.82 1010 10 16 0.00 0.00
12:51 pm 12:51 Sunny 92 33.3 9 -12.8 4 4 VRB 3 6 29.80 1009 10 16 0.00 0.00
1:51 pm 13:51 Sunny 92 33.3 10 -12.2 5 5 VRB 6 9 29.77 1008 10 16 0.00 0.00
2:51 pm 14:51 Sunny 93 33.9 9 -12.8 4 4 W 5 7 29.74 1007 10 16 0.00 0.00
3:51 pm 15:51 Sunny 96 35.6 6 -14.4 3 3 VRB 3 6 29.70 1006 10 16 0.00 0.00
4:51 pm 16:51 Sunny 96 35.6 5 -15 3 3 VRB 6 9 29.69 1006 10 16 0.00 0.00
5:51 pm 17:51 Sunny 95 35 8 -13.3 4 4 WNW 13 20 29.68 1005 10 16 0.00 0.00
6:51 pm 18:51 Sunny 91 32.8 11 -11.7 5 5 WNW 10 17 29.67 1005 10 16 0.00 0.00
7:51 pm 19:51 Clear 86 30 12 -11.1 6 6 NW 13 20 29.68 1005 10 16 0.00 0.00
8:51 pm 20:51 Clear 83 28.3 11 -11.7 6 6 NW 14 22 29.69 1006 10 16 0.00 0.00
9:51 pm 21:51 Clear 80 26.7 11 -11.7 7 7 NW 13 20 29.70 1006 10 16 0.00 0.00
10:51 pm 22:51 Clear 78 25.6 11 -11.7 8 8 WNW 13 20 29.70 1006 10 16 0.00 0.00
11:51 pm 23:51 Clear 74 23.3 12 -11.1 9 9 NW 10 17 29.71 1006 10 16 0.00 0.00

Powered by AerisWeather